User: anonymous   Login
Location: Unspecified
(0.0000°N, 0.0000°E)
Time: 02:59:03
(UTC+00:00)
Language:

STARLINK-1411 - Orbit

View from above orbital plane
View from above orbital plane
View from above satellite
View from above satellite

Ground track
Ground track

The orbit is defined by the following mean orbital elements,

1 45706U          26145.58335647 +.00000000 +00000-0 +91207-3 0 00006
2 45706  53.0328 320.1643 0003685 278.7919 163.4202 15.83702656    00
Epoch (UTC): 25 May 2026 14:00:01
Eccentricity: 0.0003685
inclination: 53.0328°
perigee height: 318 km
apogee height: 322 km
right ascension of ascending node: 320.1643°
argument of perigee: 278.7919°
revolutions per day: 15.83702656
mean anomaly at epoch: 163.4202°

The dashed part of the orbit path shows where the satellite is in the earth's shadow,  

DLR